#timestamp,LO_Frequency,Hit 
1500228015.5,286044823.8,N
1500228035.3,286044823.9,N
1500228055.2,286044824.0,N
1500228075.0,286044824.3,N
1500228075.9,286044824.3,N
1500228095.8,286044826.7,N
1500228115.6,286044823.9,N
1500228135.4,286044823.7,N
1500228155.3,286044824.1,N
1500228175.1,286044824.1,N
1500228195.9,286044826.3,N
1500228215.7,286044825.3,N
1500228235.5,286044825.7,N
1500228255.4,286044828.3,N
1500228275.2,286044828.2,N
1500228295.0,286044825.4,N
1500228295.9,286044825.4,N
1500228315.8,286044826.7,N
1500228335.6,286044826.2,N
1500228355.5,286044823.6,N
1500228375.3,286044823.6,N
1500228395.1,286044823.7,N
1500228415.9,286044826.7,N
1500228435.7,286044826.7,N
1500228455.5,286044826.3,N
1500228475.4,286044824.0,N
1500228495.2,286044824.0,N
1500228515.1,286044826.6,N
1500228516.0,286044826.6,N
1500228535.8,286044826.5,N
1500228555.6,286044826.6,N
1500228575.5,286044826.7,N
1500228595.3,286044824.5,N
1500228615.2,286044823.7,N
1500228635.9,286044823.7,N
1500228655.7,286044826.6,N
1500228675.6,286044826.3,N
1500228695.4,286044823.9,N
1500228715.2,286044823.6,N
1500228735.1,286044825.8,N
1500228736.0,286044825.8,N
1500228755.8,286044826.2,N
1500228775.7,286044825.9,N
1500228795.5,286044826.1,N
1500228815.3,286044826.0,N
1500228835.2,286044825.9,N
1500228855.0,286044825.2,N
1500228855.9,286044825.2,N
1500228875.8,286044825.7,N
1500228895.6,286044825.3,N
1500228915.4,286044825.2,N
1500228935.3,286044825.4,N
1500228955.1,286044828.2,N
1500228975.8,286044825.7,N
1500228995.7,286044825.6,N
1500229015.5,286044827.9,N
1500229035.4,286044827.7,N
1500229055.2,286044825.2,N
1500229075.0,286044828.2,N
1500229075.9,286044828.2,N
1500229095.8,286044827.7,N
1500229115.6,286044828.2,N
1500229135.5,286044825.6,N
1500229155.3,286044825.7,N
1500229175.1,286044825.6,N
1500229195.9,286044827.9,N
1500229215.7,286044825.7,N
1500229235.5,286044825.4,N
1500229255.4,286044827.7,N
1500229275.2,286044828.1,N
1500229295.1,286044828.1,N
1500229296.0,286044828.1,N
1500229315.8,286044827.5,N
1500229335.6,286044827.1,N
1500229355.5,286044826.9,N
1500229375.3,286044825.2,N
1500229395.1,286044825.9,N
1500229415.9,286044827.7,N
1500229435.7,286044827.4,N
1500229455.6,286044825.2,N
1500229475.4,286044826.1,N
1500229495.2,286044825.9,N
1500229515.1,286044825.8,N
1500229516.0,286044825.8,N
1500229535.8,286044825.3,N
1500229555.6,286044825.2,N
1500229575.5,286044828.2,N
1500229595.3,286044826.0,N
1500229615.2,286044828.2,N
1500229635.9,286044825.5,N
1500229655.7,286044825.6,N
1500229675.6,286044825.5,N
1500229695.4,286044825.2,N
1500229715.3,286044827.8,N
1500229735.1,286044827.7,N
1500229736.0,286044827.7,N
1500229755.8,286044827.0,N
1500229775.7,286044826.8,N
1500229795.5,286044827.2,N
1500229845.4,286044825.2,Y
1500229855.3,286045833.0,N
1500229875.1,286046999.7,N
1500229895.9,286047001.0,N
1500229915.7,286046999.8,N
1500229935.5,286047001.9,N
1500229955.4,286047001.9,N
1500229975.2,286047002.1,N
1500229995.1,286047004.4,N
1500229996.0,286047004.4,N
1500230015.8,286047002.6,N
1500230035.6,286047002.2,N
1500230055.5,286047001.6,N
1500230075.3,286047003.1,N
1500230095.2,286047003.6,N
1500230115.9,286047001.5,N
1500230135.7,286047004.4,N
1500230155.6,286047004.1,N
1500230175.4,286047003.2,N
1500230195.2,286047005.9,N
1500230215.1,286047003.6,N
1500230216.0,286047003.6,N
1500230235.8,286047003.4,N
1500230255.7,286047003.5,N
1500230275.5,286047003.1,N
1500230295.3,286047004.1,N
1500230315.2,286047003.6,N
1500230335.0,286047004.4,N
1500230335.9,286047004.4,N
1500230355.8,286047004.0,N
1500230375.6,286047001.4,N
1500230395.4,286047002.3,N
1500230415.3,286047002.5,N
1500230435.1,286046999.7,N
1500230455.9,286047000.2,N
1500230475.7,286047000.9,N
1500230495.5,286047000.7,N
1500230515.4,286046998.4,N
1500230535.2,286046998.1,N
1500230555.1,286046998.4,N
1500230556.0,286046998.4,N
1500230575.8,286046998.7,N
1500230595.6,286046999.4,N
1500230615.5,286046999.6,N
1500230635.3,286046996.9,N
1500230655.1,286046996.8,N
1500230675.9,286046997.6,N
1500230695.7,286046997.8,N
1500230715.6,286046998.0,N
1500230735.4,286046997.5,N
1500230755.2,286046995.2,N
1500230775.1,286046995.3,N
1500230776.0,286046995.3,N
1500230795.8,286046995.6,N
1500230815.6,286046995.2,N
1500230835.5,286046993.3,N
1500230855.3,286046996.3,N
1500230875.2,286046993.7,N
1500230895.9,286046993.4,N
1500230915.7,286046996.0,N
1500230935.6,286046996.2,N
1500230955.4,286046995.8,N
1500230975.3,286046996.1,N
1500230995.1,286046993.3,N
1500230996.0,286046993.3,N
1500231015.8,286046993.3,N
1500231035.7,286046996.0,N
1500231055.5,286046994.6,N
1500231075.4,286046991.8,N
1500231095.2,286046992.1,N
1500231115.0,286046994.8,N
1500231115.9,286046994.8,N
1500231135.8,286046993.5,N
1500231155.6,286046993.5,N
1500231175.5,286046992.1,N
1500231195.3,286046992.9,N
1500231215.1,286046992.6,N
1500231235.9,286046990.5,N
1500231255.7,286046993.1,N
1500231275.5,286046991.3,N
1500231295.4,286046990.7,N
1500231315.2,286046992.0,N
1500231335.1,286046992.6,N
1500231336.0,286046992.6,N
1500231355.8,286046992.7,N
1500231375.6,286046992.4,N
1500231395.5,286046990.1,N
1500231415.3,286046988.5,N
1500231435.2,286046988.6,N
1500231455.9,286046989.2,N
1500231475.7,286046990.0,N
1500231495.6,286046990.0,N
1500231515.4,286046989.2,N
1500231535.2,286046989.1,N
1500231555.1,286046991.5,N
1500231556.0,286046991.5,N
1500231575.8,286046991.3,N
1500231595.7,286046990.7,N
